Regional Weather Roundup
Issued by NWS

Home | Current Version | Previous Version | Text Only | Print | Product List | Glossary On
Versions: 1 2 3 4 5 6 7 8 9 10 11 12 13 14 15 16 17 18 19 20 21 22 23 24 25 26 27 28 29 30 31 32 33 34 35 36 37 38 39 40 41 42 43 44 45 46 47 48 49 50
000
ASUS43 KMPX 250101
RWRMN
WEATHER ROUNDUP FOR MINNESOTA
NATIONAL WEATHER SERVICE TWIN CITIES/CHANHASSEN MN
800 PM CDT SAT JUN 24 2017


NOTE: "FAIR" INDICATES FEW OR NO CLOUDS BELOW 12,000 FEET WITH NO
SIGNIFICANT WEATHER AND/OR OBSTRUCTIONS TO VISIBILITY. N/A MEANS
CURRENT SKY AND/OR WEATHER CONDITIONS ARE NOT AVAILABLE.

MNZ060>063-068>070-250200-
   Twin Cities Metro

CITY           SKY/WX    TMP DP  RH WIND       PRES   REMARKS
TWIN CITIES    PTCLDY    63  45  51 NW10      30.04R
ST PAUL        PTCLDY    61  45  55 NW13      30.04R
CRYSTAL        PTCLDY    62  45  53 NW13      30.03R
BLAINE         PTCLDY    64  43  45 NW12G17   30.03R
LAKEVILLE      MOCLDY    61  46  59 W10G20    30.04S
EDEN PRAIRIE   MOCLDY    63  44  50 NW12G20   30.04R
SOUTH ST PAUL  PTCLDY    63  44  50 W9G16     30.03R
LAKE ELMO      FAIR      61  45  55 NW14      30.04R
$$
MNZ001>005-007-008-013>017-022>024-027-028-250200-
   Northwest Minnesota

CITY           SKY/WX    TMP DP  RH WIND       PRES   REMARKS
BEMIDJI        RAIN      53  52  96 W13       30.03R
HALLOCK        CLOUDY    54  48  82 N9        30.12S
ROSEAU         LGT RAIN  54  48  82 N15       30.06R
WARROAD        RAIN      54  50  87 NW12G20   30.05R
CROOKSTON      LGT RAIN  50  50 100 N21G26    30.12R
FOSSTON        CLOUDY    50  48  93 NW13G18   30.08R FOG
DETROIT LAKES  PTSUNNY   52  48  87 NW15G23   30.11R
MOORHEAD       CLOUDY    55  46  71 NW17G30   30.14R
PARK RAPIDS    CLOUDY    54  47  77 NW21      30.05R
MAHNOMEN       CLOUDY    50  49  96 NW16G25   30.09R FOG
$$
MNZ006-009>011-018-025>026-250200-
   North Central Minnesota

CITY           SKY/WX    TMP DP  RH WIND       PRES   REMARKS
BAUDETTE       CLOUDY    59  52  77 NW8       30.01R
FLAG ISLAND    HVY RAIN  55  52  88 NW15      30.04R
INTL FALLS     LGT RAIN  57  52  83 N8        29.99R
WASKISH        CLOUDY    61  48  63 NW9       30.01R
BIG FORK       CLOUDY    59  46  63 W3        29.99S
LONGVILLE      MOSUNNY   59  46  63 W8        30.01S
GRAND RAPIDS   MOSUNNY   60  44  55 NW9       30.01R
CRANE LAKE     DRIZZLE   54  52  94 CALM      29.99S
ORR            LGT RAIN  55  48  76 NW5       29.96S
COOK           CLOUDY    55  50  82 N3        29.98R
WALKER         CLOUDY    55  50  82 W14G20    30.03R
$$
MNZ012-019>021-037-250200-
   Northeast Minnesota

CITY           SKY/WX    TMP DP  RH WIND       PRES   REMARKS
DULUTH         MOCLDY    56  47  71 NW7       29.96S
ELY            CLOUDY    55  50  82 N5        29.96S
HIBBING        CLOUDY    57  51  80 W5        29.97S
EVELETH        CLOUDY    59  47  64 W5        29.98S
DULUTH HARBOR  CLOUDY    63  48  59 W13       29.97R
TWO HARBORS    CLOUDY    63  52  67 W5        29.93R
SILVER BAY     CLOUDY    61  50  67 W5        29.92R
GRAND MARAIS     N/A     48  48 100 CALM      29.91S
G MARAIS ARPRT DRIZZLE   54  48  82 N3        29.94S
$$
MNZ029>031-032-039>041-046>048-054>057-064-250200-
   West Central Minnesota

CITY           SKY/WX    TMP DP  RH WIND       PRES   REMARKS
FERGUS FALLS   CLOUDY    57  48  72 N17G24    30.09R
WHEATON        CLOUDY    57  46  67 W16G28    30.15R
MORRIS         PTSUNNY   61  46  59 NW16G23   30.11R
ALEXANDRIA     CLOUDY    55  50  83 NW13      30.10R
ELBOW LAKE     CLOUDY    55  51  84 W14G22    30.11S
WADENA         CLOUDY    54  50  87 NW13G18   30.07R
GLENWOOD       MOSUNNY   59  46  63 W21G29    30.09S
APPLETON       MOSUNNY   63  43  48 NW15      30.12R
BENSON         CLOUDY    64  43  45 N18G28    30.12R
ORTONVILLE     CLOUDY    61  45  55 NW16G23   30.13R
MADISON        CLOUDY    64  43  45 NW18      30.13R
WILLMAR        PTSUNNY   63  45  51 NW16      30.10S
$$
MNZ033>034-036-042>043-049>051-058-059-250200-
   Central Minnesota

CITY           SKY/WX    TMP DP  RH WIND       PRES   REMARKS
ST CLOUD       PTCLDY    60  48  64 W14       30.05R
SAUK CENTRE    MOCLDY    59  45  60 NW10G20   30.08R
PAYNESVILLE    MOSUNNY   61  44  53 NW9G18    30.08S
AITKIN         MOCLDY    61  46  59 W5        30.00R
PINE RIVER     CLOUDY    57  48  72 W9        30.06R
BRAINERD       MOSUNNY   60  46  59 NW14      30.03R
STAPLES        RAIN      54  52  94 W9        30.06R
LONG PRAIRIE   FAIR      57  46  67 W8G16     30.07S
LITTLE FALLS   PTSUNNY   59  45  58 W12       30.05R
LITCHFIELD     MOCLDY    63  46  55 NW15      30.08R
BUFFALO        LGT RAIN  58  47  69 W8        30.06S
MAPLE LAKE     PTCLDY    58  51  77 W5        30.07R
HUTCHINSON     PTCLDY    63  46  54 W9G20     30.08S
$$
MNZ037-044-045-052-053-250200-
   East Central Minnesota

CITY           SKY/WX    TMP DP  RH WIND       PRES   REMARKS
PRINCETON      PTCLDY    63  46  55 W13       30.04R
MORA           PTCLDY    61  43  51 NW9       30.02S
CAMBRIDGE      PTCLDY    63  46  55 W7        30.01R
RUSH CITY      LGT RAIN  59  48  67 VRB6      30.01S
MOOSE LAKE     CLOUDY    61  48  63 NW3       29.98S
HINCKLEY       CLOUDY    57  50  77 W3        30.00S
CLOQUET        MOCLDY    59  46  63 CALM      29.98S
MCGREGOR       PTCLDY    57  46  67 NW3       30.01R
$$
MNZ071>073-080-081-089-090-097-098-250200-
   Southwest Minnesota

CITY           SKY/WX    TMP DP  RH WIND       PRES   REMARKS
MONTEVIDEO     MOSUNNY   64  43  45 N16G24    30.11S
GRANITE FALLS  PTSUNNY   64  43  46 W16G24    30.13R
CANBY          CLOUDY    62  42  47 W13G20    30.15R
MARSHALL       CLOUDY    62  41  46 NW18      30.12R
REDWOOD FALLS  MOCLDY    63  41  44 NW13G21   30.09R
OLIVIA         CLOUDY    63  41  45 NW12      30.09R
PIPESTONE      SUNNY     64  37  36 N18G25    30.14R
WINDOM         CLEAR     63  39  42 NW13      30.12R
WORTHINGTON    CLEAR     63  40  42 NW17G23   30.13S
JACKSON        CLEAR     63  36  36 NW16G24   30.12R
TRACY          MOSUNNY   63  42  45 NW16      30.13R
SLAYTON        MOSUNNY   61  18  18 NW14G22   30.14R
$$
MNZ065>067-074>077-082>085-091>093-250200-
   South Central Minnesota

CITY           SKY/WX    TMP DP  RH WIND       PRES   REMARKS
MANKATO        PTCLDY    62  42  47 NW15      30.08R
NEW ULM        CLOUDY    63  43  48 NW12      30.09R
ST JAMES       CLEAR     64  39  39 W15G23    30.10S
FAIRMONT       PTCLDY    64  41  42 NW13      30.10S
GLENCOE        CLEAR     62  48  59 NW13      30.07S
FARIBAULT      CLEAR     63  46  55 W9G18     30.06S
OWATONNA       PTCLDY    63  45  51 W17       30.07R
WASECA         CLEAR     59  41  51 NW14G21   30.09S
ALBERT LEA     PTCLDY    63  43  48 NW10G16   30.08R
$$
MNZ078>079-086>088-094>096-250200-
   Southeast Minnesota

CITY           SKY/WX    TMP DP  RH WIND       PRES   REMARKS
ROCHESTER      CLEAR     59  44  57 NW16G25   30.06R
RED WING       PTCLDY    63  41  45 NW7       30.02R
STANTON        PTCLDY    62  46  56 W14       30.03S
DODGE CENTER   CLEAR     61  43  51 W14G20    30.06S
WINONA         CLEAR     59  50  72 CALM      30.03S
AUSTIN         PTCLDY    61  45  55 NW12G20   30.07R
PRESTON        MOCLDY    58  46  63 NW13      30.06R
$$
ABBREVIATIONS USED IN REMARKS
   TC - TEMPERATURES IN CELSIUS
  WCI - WIND CHILL INDEX
   HX - HEAT INDEX
  VSB - VISIBILITY
$$




USA.gov is the U.S. government's official web portal to all federal, state and local government web resources and services.